[Date Prev][Date Next][Thread Prev][Thread Next] - [Date Index][Thread Index][Author Index]
2 Line ISS Keps 3-17
- Subject: [sarex] 2 Line ISS Keps 3-17
- From: "Dave Larsen PhD" <doc@xxxxxxxxxxx>
- Date: Tue, 17 Mar 2009 05:04:02 -0700
ISS
1 25544U 98067A 09075.47729483 .00010811 00000-0 87093-4 0 4712
2 25544 051.6399 061.9180 0009436 128.4321 014.6599 15.71494551591363
----
Sent via sarex@amsat.org. Opinions expressed are those of the author.
Not an AMSAT member? Join now to support the amateur satellite program!
Subscription settings: http://amsat.org/mailman/listinfo/sarex
AMSAT Home